This is the latest recevied weather packets stored in our database for station/object N5KR. If no packets are shown the sender has not sent any weather packets the latest 10 day(s).
| Time | Temp. | Humidity | Pressure | Rain* | Wind** | Luminosity | Snow |
|---|---|---|---|---|---|---|---|
| 1777393804 | 26.11° C | 82% | 1013.3 hPa | 0 mm | - | 176 W/m² | - |
| 1777392005 | 25.56° C | 84% | 1013.4 hPa | 0 mm | - | 167 W/m² | - |
| 1777389005 | 25.56° C | 85% | 1013 hPa | 0 mm | - | 62 W/m² | - |
| 1777388104 | 25° C | 85% | 1013.1 hPa | 0 mm | - | 54 W/m² | - |
| 1777387505 | 25° C | 86% | 1012.7 hPa | 0 mm | - | 42 W/m² | - |
| 1777386005 | 24.44° C | 86% | 1012.8 hPa | 0 mm | - | 27 W/m² | - |
| 1777385104 | 24.44° C | 87% | 1012.5 hPa | 0 mm | - | 30 W/m² | - |
| 1777383904 | 24.44° C | 86% | 1012.3 hPa | 0 mm | - | 11 W/m² | - |
| 1777383605 | 24.44° C | 86% | 1012.5 hPa | 0 mm | - | 11 W/m² | - |
| 1777383305 | 24.44° C | 86% | 1012.7 hPa | 0 mm | - | 13 W/m² | - |
| 1777381505 | 24.44° C | 85% | 1012.5 hPa | 0 mm | - | 25 W/m² | - |
| 1777380304 | 24.44° C | 85% | 1012.1 hPa | 0 mm | - | 17 W/m² | - |
| 1777379105 | 24.44° C | 85% | 1011.8 hPa | 0 mm | - | 16 W/m² | - |
| 1777376704 | 24.44° C | 84% | 1011.4 hPa | 0 mm | - | 0 W/m² | - |
| 1777374904 | 24.44° C | 84% | 1010.9 hPa | 0 mm | - | 0 W/m² | - |
| 1777370704 | 24.44° C | 86% | 1011.3 hPa | 0 mm | - | 0 W/m² | - |
| 1777369504 | 24.44° C | 86% | 1011.2 hPa | 0 mm | - | 0 W/m² | - |
| 1777366204 | 24.44° C | 86% | 1010.9 hPa | 0 mm | - | 0 W/m² | - |
| 1777364104 | 24.44° C | 87% | 1011.1 hPa | 0 mm | - | 0 W/m² | - |
| 1777363207 | 24.44° C | 88% | 1011.1 hPa | 0 mm | - | 0 W/m² | - |
| 1777359907 | 24.44° C | 90% | 1010.8 hPa | 0 mm | - | 0 W/m² | - |
| 1777356007 | 23.89° C | 87% | 1011.5 hPa | 0 mm | - | 0 W/m² | - |
| 1777352407 | 23.89° C | 86% | 1011.5 hPa | 0 mm | - | 0 W/m² | - |
| 1777351207 | 23.33° C | 84% | 1011.7 hPa | 0 mm | - | 0 W/m² | - |
| 1777348506 | 23.33° C | 84% | 1011.8 hPa | 0 mm | - | 0 W/m² | - |
* Rain latest hour (hover to see other rain measurements)
** Current wind speed in m/s (hover to see current wind gust speed)